FW5813 Weather Reports


time (UTC)temp
C
wind
direction
speed
KPH
gust
KPH
rain 1hr
cm
rain 24hr
cm
rain mn
cm
humidity
%
barometer
mb
20260904054610 20 231 8.0 11.3 0.00 0.00 0.00 67 1018.7
20260904054110 20 239 6.4 11.3 0.00 0.00 0.00 68 1018.9
20260904053110 19 204 1.6 9.7 0.00 0.00 0.00 69 1018.7
20260904052611 18 250 0.0 9.7 0.00 0.00 0.00 71 1018.7
20260904052110 18 213 3.2 6.4 0.00 0.00 0.00 73 1018.8
20260904051611 18 281 0.0 9.7 0.00 0.00 0.00 73 1018.8
20260904051111 18 206 1.6 9.7 0.00 0.00 0.00 74 1018.5
20260904050610 18 216 3.2 8.0 0.00 0.00 0.00 75 1018.5
20260904050111 18 172 1.6 6.4 0.00 0.00 0.00 75 1018.9
20260904045611 18 223 3.2 6.4 0.00 0.00 0.00 75 1018.5
20260904045111 17 214 3.2 8.0 0.00 0.00 0.00 76 1018.5
20260904044611 17 230 4.8 8.0 0.00 0.00 0.00 76 1018.5
20260904044110 17 203 0.0 8.0 0.00 0.00 0.00 77 1018.5
20260904043610 17 195 0.0 6.4 0.00 0.00 0.00 78 1018.6
20260904043110 17 233 3.2 6.4 0.00 0.00 0.00 78 1018.7
20260904042610 17 220 3.2 6.4 0.00 0.00 0.00 78 1018.9
20260904041610 17 75 1.6 6.4 0.00 0.00 0.00 78 1018.7
20260904040623 17 255 3.2 6.4 0.00 0.00 0.00 78 1018.6
20260904040110 17 177 1.6 6.4 0.00 0.00 0.00 77 1018.6
20260904035610 17 127 0.0 4.8 0.00 0.00 0.00 77 1018.7
20260904035111 17 185 3.2 4.8 0.00 0.00 0.00 76 1018.7
20260904034610 17 161 3.2 4.8 0.00 0.00 0.00 76 1018.8
20260904034110 17 181 1.6 4.8 0.00 0.00 0.00 76 1018.3
20260904033610 18 243 3.2 3.2 0.00 0.00 0.00 76 1018.9
20260904033110 18 185 1.6 4.8 0.00 0.00 0.00 75 1018.7
20260904032610 18 128 0.0 4.8 0.00 0.00 0.00 75 1018.7
20260904032109 18 198 1.6 4.8 0.00 0.00 0.00 75 1018.8
20260904031610 18 152 0.0 4.8 0.00 0.00 0.00 75 1018.7
20260904031110 18 37 0.0 4.8 0.00 0.00 0.00 74 1018.5
20260904030610 18 237 1.6 4.8 0.00 0.00 0.00 74 1018.6
20260904030111 18 180 1.6 6.4 0.00 0.00 0.00 74 1018.6
20260904025610 18 179 1.6 8.0 0.00 0.00 0.00 74 1018.7
20260904025110 18 237 3.2 8.0 0.00 0.00 0.00 74 1018.5
20260904024610 18 160 3.2 8.0 0.00 0.00 0.00 74 1018.8
20260904024110 18 228 3.2 6.4 0.00 0.00 0.00 74 1018.6
20260904023610 18 209 3.2 4.8 0.00 0.00 0.00 74 1018.6
20260904023110 18 312 1.6 4.8 0.00 0.00 0.00 74 1018.5
20260904022610 18 233 0.0 6.4 0.00 0.00 0.00 74 1018.3
20260904022110 18 231 3.2 6.4 0.00 0.00 0.00 74 1018.6
20260904021612 18 230 4.8 8.0 0.00 0.00 0.00 74 1018.4
20260904021109 18 232 3.2 8.0 0.00 0.00 0.00 74 1018.2
20260904020114 18 145 0.0 8.0 0.00 0.00 0.00 74 1018.2
20260904015610 18 207 3.2 8.0 0.00 0.00 0.00 74 1018.5
20260904015110 18 228 3.2 6.4 0.00 0.00 0.00 73 1018.6
20260904014612 18 195 0.0 6.4 0.00 0.00 0.00 73 1018.6
20260904014110 18 207 1.6 6.4 0.00 0.00 0.00 72 1018.5
20260904013610 18 225 3.2 6.4 0.00 0.00 0.00 72 1018.4
20260904012610 18 240 0.0 4.8 0.00 0.00 0.00 72 1018.7
20260904012109 18 272 1.6 6.4 0.00 0.00 0.00 71 1018.5
20260904011609 18 217 3.2 6.4 0.00 0.00 0.00 71 1018.7
20260904011111 18 250 6.4 6.4 0.00 0.00 0.00 72 1018.9
20260904010611 18 212 3.2 4.8 0.00 0.00 0.00 72 1019.1
20260904010114 18 146 0.0 4.8 0.00 0.00 0.00 72 1019.0
20260904005610 18 205 1.6 8.0 0.00 0.00 0.00 72 1018.8
20260904005110 18 190 1.6 8.0 0.00 0.00 0.00 72 1018.9
20260904004610 18 175 1.6 6.4 0.00 0.00 0.00 72 1018.9
20260904004110 18 213 3.2 4.8 0.00 0.00 0.00 71 1019.0
20260904003610 18 203 3.2 4.8 0.00 0.00 0.00 71 1019.1
20260904003110 18 181 3.2 6.4 0.00 0.00 0.00 71 1019.1
20260904002610 18 217 3.2 6.4 0.00 0.00 0.00 71 1019.2
20260904002111 18 207 1.6 6.4 0.00 0.00 0.00 71 1019.1
20260904001110 18 242 3.2 8.0 0.00 0.00 0.00 70 1019.3
20260904000611 18 259 3.2 8.0 0.00 0.00 0.00 70 1019.2
20260904000114 18 142 3.2 4.8 0.00 0.00 0.00 69 1019.3
20260903235609 18 203 0.0 6.4 0.00 0.00 0.00 69 1019.2
20260903235110 18 167 1.6 6.4 0.00 0.00 0.00 68 1019.2
20260903233111 19 286 0.0 3.2 0.00 0.00 0.00 68 1019.4
20260903232610 19 225 0.0 3.2 0.00 0.00 0.00 67 1019.3
20260903232110 19 44 0.0 3.2 0.00 0.00 0.00 66 1019.6
20260903231610 20 205 0.0 4.8 0.00 0.00 0.00 66 1019.4
20260903231111 20 206 3.2 6.4 0.00 0.00 0.00 66 1019.6
20260903230610 20 230 0.0 8.0 0.00 0.00 0.00 66 1019.6
20260903230122 20 224 0.0 8.0 0.00 0.00 0.00 66 1019.6
20260903225611 19 243 1.6 8.0 0.00 0.00 0.00 66 1019.6
20260903225110 19 256 1.6 6.4 0.00 0.00 0.00 67 1019.7
20260903224610 19 232 3.2 4.8 0.00 0.00 0.00 67 1019.6
20260903223610 19 229 3.2 3.2 0.00 0.00 0.00 67 1019.7
20260903223111 19 243 3.2 3.2 0.00 0.00 0.00 67 1019.4
20260903222609 19 230 0.0 3.2 0.00 0.00 0.00 67 1019.7
20260903222110 19 224 0.0 3.2 0.00 0.00 0.00 66 1019.6
20260903221609 19 255 0.0 1.6 0.00 0.00 0.00 66 1019.5
20260903221110 19 29 0.0 1.6 0.00 0.00 0.00 66 1019.7
20260903220610 19 242 0.0 3.2 0.00 0.00 0.00 65 1019.5
20260903220115 19 290 0.0 3.2 0.00 0.00 0.00 65 1019.7
20260903215610 19 301 0.0 1.6 0.00 0.00 0.00 64 1019.5
20260903214610 20 205 0.0 6.4 0.00 0.00 0.00 63 1019.8
20260903214110 20 122 0.0 8.0 0.00 0.00 0.00 62 1019.7
20260903213612 20 330 0.0 8.0 0.00 0.00 0.00 62 1019.8
20260903213111 20 334 1.6 6.4 0.00 0.00 0.00 62 1020.0
20260903212611 20 25 0.0 1.6 0.00 0.00 0.00 62 1019.9
20260903211610 20 299 0.0 4.8 0.00 0.00 0.00 61 1019.7
20260903211110 20 357 3.2 9.7 0.00 0.00 0.00 61 1019.5
20260903210610 21 0 6.4 9.7 0.00 0.00 0.00 61 1019.7
20260903210111 21 5 3.2 8.0 0.00 0.00 0.00 61 1020.0
20260903205123 21 296 4.8 8.0 0.00 0.00 0.00 60 1019.8
20260903204610 21 241 3.2 9.7 0.00 0.00 0.00 59 1019.9
20260903204110 21 332 3.2 11.3 0.00 0.00 0.00 59 1019.9
20260903203610 21 10 0.0 11.3 0.00 0.00 0.00 58 1019.8
20260903203111 21 30 4.8 9.7 0.00 0.00 0.00 58 1019.9
20260903202610 21 220 3.2 9.7 0.00 0.00 0.00 57 1019.7
20260903202110 21 324 3.2 9.7 0.00 0.00 0.00 56 1019.7
20260903201610 21 292 3.2 9.7 0.00 0.00 0.00 56 1019.8
20260903201110 21 269 3.2 9.7 0.00 0.00 0.00 55 1019.5
20260903200622 21 30 1.6 9.7 0.00 0.00 0.00 54 1019.7
20260903200116 22 355 4.8 9.7 0.00 0.00 0.00 53 1019.8
20260903195611 22 290 4.8 8.0 0.00 0.00 0.00 53 1019.6
20260903195111 22 20 0.0 6.4 0.00 0.00 0.00 52 1019.4
20260903194612 22 30 0.0 6.4 0.00 0.00 0.00 52 1019.2
20260903193110 22 249 0.0 4.8 0.00 0.00 0.00 52 1019.5
20260903192610 22 15 0.0 4.8 0.00 0.00 0.00 52 1019.2
20260903191110 22 0 0.0 1.6 0.00 0.00 0.00 51 1019.2
20260903190610 22 343 0.0 3.2 0.00 0.00 0.00 51 1019.2
20260903190110 22 308 1.6 3.2 0.00 0.00 0.00 50 1019.0
20260903185610 22 15 0.0 4.8 0.00 0.00 0.00 50 1018.8
20260903185111 22 269 0.0 4.8 0.00 0.00 0.00 50 1018.9
20260903184610 22 0 0.0 3.2 0.00 0.00 0.00 50 1018.7
20260903184110 22 258 1.6 4.8 0.00 0.00 0.00 49 1019.1
20260903183610 22 21 0.0 4.8 0.00 0.00 0.00 49 1018.8
20260903183110 23 9 0.0 8.0 0.00 0.00 0.00 49 1018.9
20260903182610 23 3 1.6 8.0 0.00 0.00 0.00 48 1018.8
20260903182110 23 294 1.6 11.3 0.00 0.00 0.00 48 1018.7
20260903181109 23 37 0.0 8.0 0.00 0.00 0.00 47 1018.5
20260903180609 23 259 1.6 6.4 0.00 0.00 0.00 47 1018.7
20260903175610 23 347 3.2 9.7 0.00 0.00 0.00 46 1018.3
20260903175110 23 335 3.2 11.3 0.00 0.00 0.00 45 1018.3
20260903174610 24 331 4.8 11.3 0.00 0.00 0.00 45 1018.3
20260903173610 24 16 6.4 8.0 0.00 0.00 0.00 45 1018.2
20260903173110 24 267 3.2 8.0 0.00 0.00 0.00 45 1017.9
20260903172610 24 230 3.2 8.0 0.00 0.00 0.00 45 1018.1
20260903172110 24 274 1.6 6.4 0.00 0.00 0.00 46 1018.3
20260903171610 24 243 3.2 6.4 0.00 0.00 0.00 45 1018.2
20260903171110 24 248 1.6 6.4 0.00 0.00 0.00 45 1018.1
20260903165611 25 334 3.2 9.7 0.00 0.00 0.00 44 1018.1
20260903165110 25 269 3.2 11.3 0.00 0.00 0.00 44 1018.1
20260903164610 25 300 4.8 11.3 0.00 0.00 0.00 44 1018.1
20260903164111 25 347 3.2 9.7 0.00 0.00 0.00 44 1017.9
20260903163609 25 265 3.2 9.7 0.00 0.00 0.00 43 1018.3
20260903162610 25 300 6.4 11.3 0.00 0.00 0.00 43 1017.8
20260903162110 25 1 3.2 11.3 0.00 0.00 0.00 43 1017.7
20260903161611 25 345 3.2 9.7 0.00 0.00 0.00 42 1017.9
20260903161112 25 281 1.6 14.5 0.00 0.00 0.00 42 1018.1
20260903160610 25 267 4.8 14.5 0.00 0.00 0.00 42 1018.1
20260903160112 25 335 3.2 9.7 0.00 0.00 0.00 42 1017.9
20260903155610 26 322 9.7 9.7 0.00 0.00 0.00 41 1018.1
20260903155110 26 313 6.4 9.7 0.00 0.00 0.00 41 1017.8
20260903154610 26 248 6.4 9.7 0.00 0.00 0.00 41 1017.9
20260903154122 26 260 4.8 9.7 0.00 0.00 0.00 41 1017.9
20260903153610 26 263 6.4 9.7 0.00 0.00 0.00 40 1017.6
20260903153110 26 274 4.8 11.3 0.00 0.00 0.00 40 1017.5
20260903152110 26 245 4.8 11.3 0.00 0.00 0.00 39 1017.7
20260903151610 27 327 4.8 9.7 0.00 0.00 0.00 39 1017.8
20260903150610 27 236 3.2 14.5 0.00 0.00 0.00 38 1017.8
20260903150111 27 291 8.0 14.5 0.00 0.00 0.00 37 1017.8
20260903145609 27 268 6.4 12.9 0.00 0.00 0.00 38 1017.9
20260903144610 27 271 6.4 14.5 0.00 0.00 0.00 38 1017.9
20260903144110 28 218 8.0 11.3 0.00 0.00 0.00 37 1017.7
20260903143610 28 348 3.2 11.3 0.00 0.00 0.00 37 1017.6
20260903143110 28 236 8.0 11.3 0.00 0.00 0.00 36 1017.5
20260903142110 28 287 4.8 16.1 0.00 0.00 0.00 36 1018.1
20260903141610 28 254 3.2 14.5 0.00 0.00 0.00 36 1018.1
20260903140609 27 293 4.8 17.7 0.00 0.00 0.00 38 1017.7
20260903140110 27 264 9.7 12.9 0.00 0.00 0.00 37 1017.8
20260903135610 27 299 6.4 14.5 0.00 0.00 0.00 38 1017.9
20260903135110 27 255 4.8 14.5 0.00 0.00 0.00 37 1017.9
20260903134610 27 330 8.0 12.9 0.00 0.00 0.00 37 1018.1
20260903132610 28 44 3.2 14.5 0.00 0.00 0.00 36 1017.9
20260903132110 28 281 8.0 11.3 0.00 0.00 0.00 35 1017.9
20260903131112 28 260 6.4 11.3 0.00 0.00 0.00 36 1017.9
20260903130610 28 172 3.2 14.5 0.00 0.00 0.00 37 1018.1
20260903125610 27 339 6.4 12.9 0.00 0.00 0.00 38 1018.3
20260903124610 28 345 8.0 11.3 0.00 0.00 0.00 37 1018.2
20260903124109 28 266 4.8 11.3 0.00 0.00 0.00 35 1018.1
20260903123609 29 259 3.2 19.3 0.00 0.00 0.00 36 1018.2
20260903123110 27 218 3.2 19.3 0.00 0.00 0.00 37 1018.4
20260903122610 27 321 3.2 11.3 0.00 0.00 0.00 38 1018.5
20260903122110 27 235 3.2 11.3 0.00 0.00 0.00 38 1018.8
20260903121610 27 238 3.2 11.3 0.00 0.00 0.00 38 1018.5
20260903121110 27 244 3.2 16.1 0.00 0.00 0.00 37 1018.5
20260903120610 26 228 4.8 22.5 0.00 0.00 0.00 40 1018.6
20260903120115 27 3 6.4 22.5 0.00 0.00 0.00 39 1018.9
20260903115110 27 353 0.0 11.3 0.00 0.00 0.00 39 1018.8
20260903114610 27 254 3.2 11.3 0.00 0.00 0.00 39 1018.7
20260903114109 27 268 0.0 12.9 0.00 0.00 0.00 39 1018.8
20260903113610 26 289 3.2 16.1 0.00 0.00 0.00 39 1018.9
20260903113110 26 254 3.2 16.1 0.00 0.00 0.00 39 1019.0
20260903111110 27 261 3.2 14.5 0.00 0.00 0.00 38 1019.0
20260903110610 28 288 3.2 17.7 0.00 0.00 0.00 37 1019.3
20260903110111 28 228 8.0 17.7 0.00 0.00 0.00 36 1019.0
20260903105609 27 278 3.2 9.7 0.00 0.00 0.00 38 1019.2
20260903105110 27 246 0.0 11.3 0.00 0.00 0.00 38 1019.3
20260903104609 27 247 4.8 16.1 0.00 0.00 0.00 38 1019.3
20260903104110 27 48 1.6 17.7 0.00 0.00 0.00 39 1019.1
20260903103610 27 352 8.0 17.7 0.00 0.00 0.00 38 1019.2
20260903103110 27 288 4.8 16.1 0.00 0.00 0.00 37 1019.2
20260903102610 27 251 4.8 16.1 0.00 0.00 0.00 37 1019.1
20260903102110 27 266 3.2 17.7 0.00 0.00 0.00 37 1019.3
20260903101610 27 4 16.1 17.7 0.00 0.00 0.00 38 1019.6
20260903100610 27 261 4.8 24.1 0.00 0.00 0.00 37 1019.7
20260903100110 28 285 4.8 24.1 0.00 0.00 0.00 37 1019.6
20260903095610 29 261 6.4 20.9 0.00 0.00 0.00 35 1019.7
20260903095110 28 4 9.7 20.9 0.00 0.00 0.00 37 1019.9
20260903094109 28 307 9.7 14.5 0.00 0.00 0.00 36 1019.7
20260903093610 27 288 3.2 14.5 0.00 0.00 0.00 40 1020.1
20260903093110 28 255 3.2 9.7 0.00 0.00 0.00 39 1019.9
20260903092610 28 334 0.0 8.0 0.00 0.00 0.00 39 1019.9
20260903092112 27 129 4.8 12.9 0.00 0.00 0.00 42 1020.1
20260903091610 27 332 4.8 22.5 0.00 0.00 0.00 43 1020.1
20260903091109 26 26 0.0 22.5 0.00 0.00 0.00 43 1020.2
20260903090610 26 31 4.8 12.9 0.00 0.00 0.00 43 1020.0
20260903090109 26 21 6.4 12.9 0.00 0.00 0.00 44 1020.2
20260903085610 26 25 9.7 12.9 0.00 0.00 0.00 44 1020.4
20260903085110 26 312 3.2 9.7 0.00 0.00 0.00 44 1020.2
20260903084110 25 337 3.2 16.1 0.00 0.00 0.00 45 1020.4
20260903083611 26 235 3.2 11.3 0.00 0.00 0.00 45 1020.5
20260903083110 26 208 4.8 14.5 0.00 0.00 0.00 44 1020.4
20260903082610 26 298 3.2 11.3 0.00 0.00 0.00 44 1020.3
20260903082123 26 290 4.8 11.3 0.00 0.00 0.00 46 1020.4
20260903081610 26 324 4.8 9.7 0.00 0.00 0.00 45 1020.4
20260903081110 25 277 4.8 9.7 0.00 0.00 0.00 47 1020.4
20260903080610 25 214 6.4 11.3 0.00 0.00 0.00 46 1020.4
20260903080123 25 311 3.2 11.3 0.00 0.00 0.00 46 1020.3
20260903075610 26 273 3.2 8.0 0.00 0.00 0.00 45 1020.4
20260903075109 25 351 6.4 11.3 0.00 0.00 0.00 47 1020.4
20260903074109 24 281 3.2 11.3 0.00 0.00 0.00 49 1020.3
20260903073610 24 339 8.0 14.5 0.00 0.00 0.00 49 1020.3
20260903072610 24 223 0.0 11.3 0.00 0.00 0.00 48 1020.4
20260903071610 23 247 3.2 14.5 0.00 0.00 0.00 49 1019.9
20260903071110 23 216 1.6 9.7 0.00 0.00 0.00 50 1020.1
20260903070610 23 317 3.2 9.7 0.00 0.00 0.00 51 1020.4
20260903070117 22 230 1.6 6.4 0.00 0.00 0.00 55 1020.3
20260903065610 21 20 3.2 4.8 0.00 0.00 0.00 58 1020.3
20260903064609 21 137 3.2 4.8 0.00 0.00 0.00 58 1020.1
20260903064109 21 217 0.0 3.2 0.00 0.00 0.00 60 1020.4
20260903063623 20 103 0.0 3.2 0.00 0.00 0.00 64 1020.2
20260903063110 19 202 0.0 3.2 0.00 0.00 0.00 66 1020.0
20260903062610 19 180 1.6 3.2 0.00 0.00 0.00 66 1020.2
20260903062110 18 151 3.2 3.2 0.00 0.00 0.00 68 1020.1
20260903061110 18 201 1.6 1.6 0.00 0.00 0.00 69 1020.1
20260903060610 18 15 0.0 0.0 0.00 0.00 0.00 69 1020.1
20260903060122 18 15 0.0 3.2 0.00 0.00 0.00 70 1020.2
20260903055610 18 15 0.0 3.2 0.00 0.00 0.00 70 1020.2
20260903055110 17 15 0.0 3.2 0.00 0.00 0.00 71 1020.0